This is the latest recevied weather packets stored in our database for station/object W0BJ. If no packets are shown the sender has not sent any weather packets the latest 10 day(s).
| Time | Temp. | Humidity | Pressure | Rain* | Wind** | Luminosity | Snow |
|---|---|---|---|---|---|---|---|
| 1777675997 | 18.89° C | 31% | 1017.9 hPa | 0 mm | - | - | - |
| 1777675943 | 18.89° C | 31% | 1017.9 hPa | 0 mm | - | - | - |
| 1777675345 | 19.44° C | 31% | 1018.2 hPa | 0 mm | - | - | - |
| 1777675099 | 19.44° C | 31% | 1018.2 hPa | 0 mm | - | - | - |
| 1777674744 | 19.44° C | 33% | 1018.4 hPa | 0 mm | - | - | - |
| 1777674199 | 18.89° C | 33% | 1018.3 hPa | 0 mm | - | - | - |
| 1777674144 | 18.89° C | 33% | 1018.5 hPa | 0 mm | - | - | - |
| 1777673545 | 18.89° C | 31% | 1018.6 hPa | 0 mm | - | - | - |
| 1777673299 | 18.33° C | 32% | 1018.5 hPa | 0 mm | - | - | - |
| 1777672944 | 18.89° C | 31% | 1018.6 hPa | 0 mm | - | - | - |
| 1777672398 | 19.44° C | 32% | 1018.7 hPa | 0 mm | - | - | - |
| 1777672344 | 19.44° C | 33% | 1018.7 hPa | 0 mm | - | - | - |
| 1777671744 | 18.33° C | 33% | 1018.7 hPa | 0 mm | - | - | - |
| 1777671497 | 18.89° C | 32% | 1018.8 hPa | 0 mm | - | - | - |
| 1777671145 | 19.44° C | 33% | 1018.9 hPa | 0 mm | - | - | - |
| 1777670599 | 20° C | 32% | 1019 hPa | 0 mm | - | - | - |
| 1777670545 | 20° C | 33% | 1019 hPa | 0 mm | - | - | - |
| 1777669944 | 19.44° C | 34% | 1019.1 hPa | 0 mm | - | - | - |
| 1777669698 | 18.89° C | 35% | 1019.2 hPa | 0 mm | - | - | - |
| 1777669344 | 18.33° C | 33% | 1019.2 hPa | 0 mm | - | - | - |
| 1777668797 | 18.33° C | 33% | 1019.5 hPa | 0 mm | - | - | - |
| 1777668745 | 18.33° C | 34% | 1019.6 hPa | 0 mm | - | - | - |
| 1777668145 | 17.78° C | 33% | 1019.9 hPa | 0 mm | - | - | - |
| 1777667899 | 18.33° C | 36% | 1019.8 hPa | 0 mm | - | - | - |
| 1777667544 | 18.89° C | 35% | 1019.8 hPa | 0 mm | - | - | - |
* Rain latest hour (hover to see other rain measurements)
** Current wind speed in m/s (hover to see current wind gust speed)